Location: Lake of the Woods (North-East)
(49.6672°N, 94.8656°W)
Time: 09:46:40
(UTC-05:00)

ISS - All Passes

Search period start: 26 September 2017 00:00
Search period end: 06 October 2017 00:00
Orbit: 401 x 407 km, 51.6° (Epoch: 26 September)

Date Brightness Start Highest point End Pass type
(mag) Time Alt. Az. Time Alt. Az. Time Alt. Az.
26 Sep - 01:16:54 10° WNW 01:20:13 87° NNE 01:23:31 10° ESE night (unlit)
26 Sep - 02:53:39 10° W 02:56:27 25° SW 02:59:13 10° SSE night (unlit)
26 Sep - 21:11:34 10° SW 21:14:43 46° SSE 21:17:53 10° ENE visible
26 Sep - 22:47:53 10° W 22:51:09 65° N 22:54:26 10° ENE visible
27 Sep - 00:24:33 10° WNW 00:27:50 69° N 00:31:07 10° E night (unlit)
27 Sep - 02:01:06 10° W 02:04:13 39° SSW 02:07:19 10° SE night (unlit)
27 Sep - 20:19:34 10° SSW 20:22:28 30° SE 20:25:23 10° E visible
27 Sep - 21:55:28 10° WSW 21:58:45 79° NNW 22:02:03 10° ENE visible
27 Sep - 23:32:08 10° WNW 23:35:25 60° N 23:38:40 10° E night (unlit)
28 Sep - 01:08:40 10° WNW 01:11:56 60° SSW 01:15:11 10° SE night (unlit)
28 Sep - 02:46:09 10° WSW 02:47:53 14° SW 02:49:36 10° S night (unlit)
28 Sep - 19:27:53 10° S 19:30:17 19° SE 19:32:41 10° E daylight
28 Sep - 21:03:06 10° WSW 21:06:22 78° SSE 21:09:40 10° ENE visible
28 Sep - 22:39:42 10° W 22:42:58 58° N 22:46:14 10° E visible
29 Sep - 00:16:17 10° WNW 00:19:35 85° SSW 00:22:52 10° ESE night (unlit)
29 Sep - 01:53:07 10° W 01:55:44 22° SW 01:58:20 10° SSE night (unlit)
29 Sep - 18:36:55 10° SSE 18:38:08 12° SE 18:39:21 10° ESE daylight
29 Sep - 20:10:49 10° SW 20:14:01 53° SSE 20:17:14 10° ENE visible
29 Sep - 21:47:14 10° W 21:50:30 62° N 21:53:46 10° ENE visible
29 Sep - 23:23:52 10° WNW 23:27:10 74° NNE 23:30:27 10° E night (unlit)
30 Sep - 01:00:29 10° W 01:03:30 34° SSW 01:06:31 10° SE night (unlit)
30 Sep - 19:18:42 10° SW 19:21:43 34° SSE 19:24:44 10° E daylight
30 Sep - 20:54:46 10° W 20:58:03 73° NNW 21:01:20 10° ENE visible
30 Sep - 22:31:27 10° WNW 22:34:42 63° N 22:37:59 10° E visible
01 Oct - 00:07:58 10° WNW 00:11:11 52° SSW 00:14:24 10° SE night (unlit)
01 Oct - 01:45:56 10° WSW 01:47:04 11° SW 01:48:12 10° SSW night (unlit)
01 Oct - 18:26:51 10° SSW 18:29:27 22° SE 18:32:04 10° E daylight
01 Oct - 20:02:20 10° WSW 20:05:37 86° SSE 20:08:54 10° ENE visible
01 Oct - 21:38:59 10° W 21:42:13 58° N 21:45:29 10° E visible
01 Oct - 23:15:31 10° WNW 23:18:49 77° SSW 23:22:06 10° ESE night (unlit)
02 Oct - 00:52:31 10° W 00:54:54 19° SW 00:57:16 10° S night (unlit)
02 Oct - 17:35:30 10° S 17:37:15 14° SE 17:39:01 10° ESE daylight
02 Oct - 19:09:58 10° SW 19:13:12 61° SSE 19:16:28 10° ENE daylight
02 Oct - 20:46:29 10° W 20:49:44 60° N 20:53:00 10° ENE visible
02 Oct - 22:23:06 10° WNW 22:26:23 80° NNE 22:29:40 10° ESE visible
02 Oct - 23:59:45 10° W 00:02:39 29° SW 00:05:33 10° SSE night (unlit)
03 Oct - 18:17:45 10° SW 18:20:51 40° SSE 18:23:57 10° E daylight
03 Oct - 19:53:58 10° W 19:57:14 69° NNW 20:00:31 10° ENE visible
03 Oct - 21:30:37 10° WNW 21:33:54 66° N 21:37:10 10° E visible
03 Oct - 23:07:10 10° WNW 23:10:20 45° SSW 23:13:29 10° SE night (unlit)
04 Oct - 17:25:46 10° SSW 17:28:32 25° SE 17:31:18 10° E daylight
04 Oct - 19:01:28 10° WSW 19:04:45 86° N 19:08:03 10° ENE daylight
04 Oct - 20:38:07 10° WNW 20:41:23 59° N 20:44:38 10° E visible
04 Oct - 22:14:39 10° WNW 22:17:56 68° SSW 22:21:11 10° ESE visible
04 Oct - 23:51:51 10° W 23:53:57 16° SW 23:56:02 10° S night (unlit)
05 Oct - 16:34:10 10° S 16:36:16 16° SE 16:38:24 10° E daylight
05 Oct - 18:09:02 10° WSW 18:12:18 69° SSE 18:15:34 10° ENE daylight
05 Oct - 19:45:36 10° W 19:48:51 59° N 19:52:06 10° ENE visible
05 Oct - 21:22:11 10° WNW 21:25:29 87° NNE 21:28:47 10° ESE visible
05 Oct - 22:58:55 10° W 23:01:41 25° SW 23:04:27 10° SSE night (unlit)
